[Iaude] MPEC T23: 2023 TK [a=1.43,e=0.29,i=5.2,H=27.1]
    mpec at marsden.cfa.harvard.edu 
    mpec at marsden.cfa.harvard.edu
       
    Wed Oct  4 21:01:50 EDT 2023
    
    
  
M.P.E.C. 2023-T23                               Issued 2023 October 5, 01:00 UT
     The Minor Planet Electronic Circulars contain information on unusual
         minor planets, routine data on comets and natural satellites,
         and occasional editorial announcements.  They are published
    on behalf of Division F of the International Astronomical Union by the
          Minor Planet Center, Smithsonian Astrophysical Observatory,
                          Cambridge, MA 02138, U.S.A.
			  
             Prepared using the Tamkin Foundation Computer Network
                              MPC at CFA.HARVARD.EDU
            URL https://www.minorplanetcenter.net/    ISSN 1523-6714
                                    2023 TK                                     
Observations:
     K23T00K*1C2023 10 04.24659523 16 36.480+42 52 28.78         19.60GVET023G96
     K23T00K 1C2023 10 04.25266523 16 49.811+42 52 52.97               VET023G96
     K23T00K 1C2023 10 04.25841723 17 02.512+42 53 15.83         20.00GVET023G96
     K23T00K 1C2023 10 04.26409123 17 15.076+42 53 37.97         19.78GVET023G96
     K23T00K  C2023 10 04.29721723 18 26.535+42 55 18.36         20.0 GVET023H01
     K23T00K  C2023 10 04.30052923 18 33.959+42 55 29.30         19.9 GVET023H01
     K23T00K  C2023 10 04.31156323 18 58.786+42 56 04.44         19.9 GVET023H01
     K23T00K  C2023 10 04.31813423 19 13.640+42 56 24.86         20.1 GVET023H01
     K23T00K mC2023 10 04.39018223 22 01.196+43 00 00.22         20.18GVET023I52
     K23T00K mC2023 10 04.39049123 22 01.859+43 00 00.72         19.63GVET023I52
     K23T00K mC2023 10 04.39080023 22 02.654+43 00 02.16         19.76GVET023I52
     K23T00K mC2023 10 04.39110923 22 03.378+43 00 02.84         20.28GVET023I52
     K23T00K KC2023 10 04.90535623 45 13.74 +43 24 49.6          19.4 GVET023104
     K23T00K KC2023 10 04.91049423 45 26.90 +43 24 59.7          19.7 GVET023104
     K23T00K KC2023 10 04.91526123 45 39.06 +43 25 10.2          19.6 GVET023104
     K23T00K KC2023 10 04.94371023 46 50.54 +43 25 48.3          20.4 GVET023L01
     K23T00K KC2023 10 04.94518523 46 54.28 +43 25 50.4          20.3 GVET023L01
     K23T00K KC2023 10 04.95246023 47 21.90 +43 26 22.8          18.6 GXET023958
     K23T00K KC2023 10 04.95971823 47 40.69 +43 26 36.0          18.6 GXET023958
     K23T00K KB2023 10 04.96248523 47 47.35 +43 26 30.5          19.2 GVET023I93
     K23T00K KB2023 10 04.96584223 47 56.07 +43 26 37.4          19.5 GVET023I93
     K23T00K KC2023 10 04.96708123 47 59.64 +43 26 47.1          18.3 GXET023958
     K23T00K KB2023 10 04.96914223 48 04.56 +43 26 41.9          19.1 GVET023I93
Observer details:
104 San Marcello Pistoiese.  Observers P. Bacci, M. Maestripieri.  Measurers
    P. Bacci, L. Tesi, G. Fagioli.  0.60-m F4 Reflector + CCD.
958 Observatoire de Dax.  Observers P. Dupouy, J. B. de Vanssay.  Measurer P.
    Dupouy.  0.43-m f/2.7 Reflector + CCD.
G96 Mt. Lemmon Survey.  Observer G. J. Leonard.  Measurers E. C. Beshore, D.
    Fay, J. B. Fazekas, D. C. Fuls, A. R. Gibbs, A. D. Grauer, H. Groeller, J.
    K. Hogan, R. A. Kowalski, S. M. Larson, G. J. Leonard, D. Rankin, R. L.
    Seaman, F. C. Shelly, K. W. Wierzchos.  1.5-m reflector + 10K CCD.
H01 Magdalena Ridge Observatory, Socorro.  Observers W. H. Ryan, E. V. Ryan.
    Measurer W. H. Ryan.  2.4-m f/8.9 Ritchey-Chretien + CCD.
I52 Steward Observatory, Mt. Lemmon Station.  Observer D. Rankin.  Measurers
    E. C. Beshore, D. Fay, J. B. Fazekas, D. C. Fuls, A. R. Gibbs, A. D.
    Grauer, H. Groeller, J. K. Hogan, R. A. Kowalski, S. M. Larson, G. J.
    Leonard, D. Rankin, R. L. Seaman, F. C. Shelly, K. W. Wierzchos.  1.0-m
    prime focus + CCD.
I93 St Pardon de Conques.  Observer F. Losse.  0.40-m f/3.7 reflector + CMO.
L01 Visnjan Observatory, Tican.  Observer K. Korlevic.  1.0-m f/2.9 reflector
    + CCD.
Orbital elements:
2023 TK                                                  Earth MOID = 0.0113 AU
Epoch 2023 Sept. 13.0 TT = JDT 2460200.5                Veres                   
M 341.93610              (2000.0)            P               Q                  
n   0.57672438     Peri.  183.46900     +0.93039806     -0.36548429             
a   1.4294112      Node   198.04598     +0.33843737     +0.88581630             
e   0.2938548      Incl.    5.17486     +0.14078210     +0.28592083             
P   1.71           H   27.11          G   0.15           U   8                  
Residuals in seconds of arc
231004 G96  0.7-  0.0     231004 I52  0.1+  0.5-    231004 L01  0.8-  0.1-
231004 G96  0.8-  0.3-    231004 I52  0.6-  0.7-    231004 958  0.0   0.8+
231004 G96  0.3-  0.1-    231004 I52  0.1+  0.1+    231004 958  0.7+  1.1+
231004 G96  0.4+  0.1+    231004 I52  0.1+  0.0     231004 I93  0.7+  1.0-
231004 H01  0.1+  0.1-    231004 104  0.2+  0.1+    231004 I93  1.1+  0.4+
231004 H01  0.1+  0.0     231004 104  0.2+  0.6-    231004 958  0.1-  0.0
231004 H01  0.0   0.1-    231004 104  0.3-  0.2+    231004 I93  0.5+  0.4-
231004 H01  0.0   0.0     231004 L01  0.0   0.0
Ephemeris:
2023 TK                  a,e,i = 1.43, 0.29, 5                   q = 1.0094
Date    TT    R. A. (2000) Decl.     Delta      r    Elong.  Phase     V
2023 09 05    20 07 55.2 +21 06 11   0.09275 1.0711   130.6    45.6    23.8
...
2023 09 20    20 21 42.2 +26 32 27   0.05203 1.0340   123.2    54.4    22.7
...
2023 09 28    21 03 49.5 +33 11 27   0.03127 1.0206   125.2    53.4    21.6
...
2023 10 04    23 06 52.5 +42 32 53   0.01822 1.0138   136.5    42.8    20.1
2023 10 05    23 49 31.7 +43 27 39   0.01673 1.0130   139.3    40.1    19.8
2023 10 06    00 40 02.2 +43 13 14   0.01560 1.0122   141.6    37.9    19.6
...
2023 10 12    04 46 10.8 +17 23 39   0.01890 1.0094   125.6    53.5    20.5
...
2023 10 20    06 07 00.0 -01 43 57   0.03708 1.0103   111.7    66.4    22.3
...
2023 11 04    06 36 04.9 -09 59 18   0.07556 1.0262   115.0    61.1    23.7
M. P. C. Staff               (C) Copyright 2023 MPC           M.P.E.C. 2023-T23
    
    
More information about the Iaude
mailing list